Regional Weather Roundup
Issued by NWS

Home | Current Version | Previous Version | Graphics & Text | Print | Product List | Glossary On
Versions: 1 2 3 4 5 6 7 8 9 10 11 12 13 14 15 16 17 18 19 20 21 22 23 24 25 26 27
000
ASUS45 KBOU 300207
RWRCO

WEATHER ROUNDUP FOR COLORADO
NATIONAL WEATHER SERVICE DENVER/BOULDER CO
800 PM MDT FRI JUL 29 2016

NOTE: "FAIR" INDICATES FEW OR NO CLOUDS BELOW 12000 FEET WITH NO
SIGNIFICANT WEATHER AND/OR OBSTRUCTIONS TO VISIBILITY.

COZ001>005-013-030-031-300300-
...NORTHWEST COLORADO...

CITY           SKY/WX    TMP DP  RH WIND       PRES   REMARKS
CRAIG          FAIR      79  44  28 SE8       30.07F
HAYDEN         FAIR      79  34  19 SE8       30.11F
MEEKER         FAIR      82  39  21 SE3       30.09S
MOUNT WERNER   NOT AVBL
STEAMBOAT SPGS FAIR      75  39  27 NE6       30.14F
WALDEN         MOCLDY    73  30  20 W9        30.25F
$$

COZ006>008-011-300300-
...WEST CENTRAL VALLEYS...

CITY           SKY/WX    TMP DP  RH WIND       PRES   REMARKS
GRAND JUNCTION FAIR      93  32  11 NW6       29.95F
MONTROSE       FAIR      88  36  15 N9        30.06R
EAGLE          FAIR      88  32  13 NW9G16    30.12S
RIFLE          FAIR      90  32  12 SW17      30.01R
DELTA          NOT AVBL
NUCLA          NOT AVBL
$$

COZ017>023-064>068-300300-
...SOUTHWEST COLORADO...

CITY           SKY/WX    TMP DP  RH WIND       PRES   REMARKS
DURANGO        FAIR      84  35  17 N6        30.11R
CORTEZ         FAIR      87  34  15 W3        30.04S
PAGOSA SPRINGS FAIR      78  32  18 CALM      30.21S
TELLURIDE      FAIR      75  27  17 CALM      30.38S
WOLF CREEK PAS FAIR      59  23  25 N7        30.64S
$$

COZ009-010-012-014-032>034-037-058>063-300300-
...CENTRAL COLORADO...

CITY           SKY/WX    TMP DP  RH WIND       PRES   REMARKS
ASPEN          FAIR      79  32  18 W7        30.22R
BUENA VISTA    FAIR      73  47  39 S13G20    30.25S
COPPER MTN     FAIR      61  25  25 NW12G22   30.62S
BERTHOUD PASS  FAIR      50  36  57 MISG      30.63F
COTTONWOOD PAS MOCLDY    72  36  26 E6        30.42S
GUNNISON       FAIR      79  30  17 NW7       30.25R
KREMMLING      FAIR      79  25  13 NW3       30.20S
LEADVILLE      FAIR      67  25  20 N12       30.41S
MONARCH PASS   FAIR      54  45  71 MISG      30.71R
SALIDA         FAIR      76  51  42 SE16G24   30.29R
SUNLIGHT       MOCLDY    64  34  32 MISG      30.53S
WILKERSON PASS FAIR      55  43  62 CALM      30.57S
$$

COZ069>075-300300-
...SAN LUIS VALLEY/SANGRE DE CRISTO MOUNTAINS...

CITY           SKY/WX    TMP DP  RH WIND       PRES   REMARKS
ALAMOSA        FAIR      73  51  46 E15G31    30.20R
LA VETA PASS   FAIR      57  50  77 NE13G20   30.47S
SAGUACHE       FAIR      81  30  16 N12G18    30.22R
$$

COZ035-036-038>040-300300-
...NORTHERN COLORADO FRONT RANGE...

CITY           SKY/WX    TMP DP  RH WIND       PRES   REMARKS
DENVER INTL AP FAIR      78  56  46 S22G30    30.09R
DMNS CITY PARK   N/A     79  53  40 S9G21     30.07R
AURORA         PTCLDY    77  57  50 SE18G28   30.11R
FRONT RANGE AP MOCLDY    79  57  47 SE21G32   30.12R
ERIE MUNI ARPT MOCLDY    82  54  37 E13       30.04R
BOULDER MUN AP FAIR      81  50  34 N9        30.07R
CENTENNIAL     FAIR      75  54  47 S21G32    30.11R
BROOMFIELD     NOT AVBL
LONGMONT       NOT AVBL
$$

COZ041-046-047-076>085-087-088-300300-
...PIKES PEAK/PALMER DIVIDE AND SOUTHERN FOOTHILLS...

CITY           SKY/WX    TMP DP  RH WIND       PRES   REMARKS
COLO. SPRINGS  FAIR      71  56  58 S9        30.21S
A. F. ACADEMY  FAIR      70  55  58 S13       30.20S
SCHRIEVER AFB  NOT AVBL
ELLICOTT       NOT AVBL
FALCON         FAIR      67  55  66 S8        30.26S
FORT CARSON    NOT AVBL
LIMON          FAIR      71  58  63 S13       30.14S
MONUMENT HILL  FAIR      64  54  68 S16G24    30.24F
TRINIDAD       NOT AVBL
$$

COZ042>045-048>051-090-091-300300-
...NORTHEAST COLORADO...

CITY           SKY/WX    TMP DP  RH WIND       PRES   REMARKS
GREELEY ARPT   FAIR      66  61  82 SW20G29   30.07F THUNDER
AKRON          FAIR      72  58  61 SE8       30.13R
BURLINGTON     FAIR      73  59  61 E8        30.10S
WRAY           NOT AVBL
STERLING       NOT AVBL
HOLYOKE        NOT AVBL
FORT MORGAN    NOT AVBL
$$

COZ086-089-092>099-300300-
...SOUTHEAST COLORADO...

CITY           SKY/WX    TMP DP  RH WIND       PRES   REMARKS
PUEBLO         FAIR      81  59  47 E12       30.07S
LA JUNTA       FAIR      81  61  50 SE14      30.06R
LAMAR          FAIR      76  65  68 SE14      30.04R
SPRINGFIELD      N/A     71  63  75 SE8       30.11R
$$




USA.gov is the U.S. government's official web portal to all federal, state and local government web resources and services.